Skip Page Navigation
NASA JPL Caltech
NASA Logo - Jet Propulsion Laboratory + View the NASA Portal
+ Near-Earth Object (NEO) Program
Search JPL
JPL Home Earth Solar System Stars & Galaxies Technology
JPL Solar System Dynamics
BODIES ORBITS EPHEMERIDES TOOLS PHYSICAL DATA DISCOVERY FAQ SITE MAP
JPL Small-Body Database Browser
Search: [ help ]  
10583 Kanetugu (1995 WC4)
Classification: Main-belt Asteroid          SPK-ID: 2010583
Ephemeris | Orbit Diagram | Orbital Elements | Physical Parameters | Discovery Circumstances ]

[ show orbit diagram ]
Orbital Elements at Epoch 2456400.5 (2013-Apr-18.0) TDB
Reference: MPO256943 (heliocentric ecliptic J2000)
 Element Value Uncertainty (1-sigma)   Units 
e 0.2239892 n/a  
a 3.1145817 n/a AU
q 2.4169490 n/a AU
i 14.67998 n/a deg
node 61.74749 n/a deg
peri 274.52202 n/a deg
M 120.87972 n/a deg
tp 2455726.3617660
(2011-Jun-13.86176600)
n/a JED
period 2007.6962806
5.50
n/a
n/a
d
yr
n 0.17930999 n/a deg/d
Q 3.8122144 n/a AU
  Orbit Determination Parameters
   # obs. used (total)      979  
   first obs. used      1973-??-??  
   last obs. used      2013-03-04  
   # oppositions      17  
   planetary ephem.      DE403  
   condition code      0  
   fit RMS      0.53  
   data source      MPC:mpn  
   producer      MPCLINUX  

Additional Information
 T_jup = 3.129 

Ephemeris | Orbit Diagram | Orbital Elements | Physical Parameters | Discovery Circumstances ]

Physical Parameter Table
Parameter Symbol Value Units Sigma Reference Notes
absolute magnitude H 11.90 mag n/a IRAS-A-FPA-3-RDR-IMPS-V6.0 IRAS observations used: 15
diameter diameter 25.16 km 2.2 IRAS-A-FPA-3-RDR-IMPS-V6.0 IRAS observations used: 15
geometric albedo albedo 0.0485   0.010 IRAS-A-FPA-3-RDR-IMPS-V6.0 IRAS observations used: 15

10583 Kanetugu           Discovered 1995 Nov. 21 by T. Okuni at Nanyo.
Kanetugu Naoe (1560-1619) was a military commander during the Japanese feudal period. He was on the side of the Toyotomis, and in the decisive battle of 1600 he fought against Yoshiaki Mogami, the lord of Yamagata (a part of present Yamagata Prefecture), who stood by the Tokugawas.
NOTE: some special characters may not display properly (any characters within {} are an attempt to place the proper accent above a character)
Reference: 20001013/MPCPages.arcLast Updated: 2013-03-29

Alternate Designations
 1995 WC4 = 1973 YQ1 = 1989 VR6 = 1994 NA13 
Ephemeris | Orbit Diagram | Orbital Elements | Physical Parameters | Discovery Circumstances ]
ABOUT SSD CREDITS/AWARDS PRIVACY/COPYRIGHT GLOSSARY LINKS
FirstGov 2013-May-19 16:19 UT
(server date/time)  
NASA Home Page
Site Manager:   Donald K. Yeomans
Webmaster  Alan B. Chamberlin